Regional Weather Roundup
Issued by NWS

Home | Current Version | Previous Version | Text Only | Print | Product List | Glossary Off
Versions: 1 2 3 4 5 6 7 8 9 10 11 12 13 14 15 16 17 18 19 20 21 22 23 24 25 26 27 28 29 30 31 32 33 34 35 36 37 38 39 40 41 42 43 44 45 46 47 48 49 50

669
ASUS43 KDMX 040901
RWRIA

WEATHER ROUNDUP FOR IOWA
NATIONAL WEATHER SERVICE DES MOINES IA
300 AM CST SUN DEC 04 2016

NOTE: "FAIR" INDICATES FEW OR NO CLOUDS BELOW 12,000 FEET WITH NO
SIGNIFICANT WEATHER AND/OR OBSTRUCTIONS TO VISIBILITY.

* - THESE STATIONS ARE NOT NWS STATIONS...THUS NOT UNDER NWS
QUALITY CONTROL.  THEY ALSO DO NOT REPORT WEATHER SUCH
AS PRECIPITATION OR FOG.

IAZ001>003-012>014-020>022-031>034-043>046-041000-
   NORTHWEST IOWA

CITY           SKY/WX    TMP DP  RH WIND       PRES   REMARKS
CARROLL *      CLOUDY    34  34 100 S9        30.00F FOG     WCI  26
CHEROKEE *     CLOUDY    33  33 100 S6        29.99F WCI  28
DENISON *      CLOUDY    34  34 100 S7        29.98S FOG     WCI  28
LE MARS *      CLOUDY    34  34 100 S12       29.99F WCI  25
ORANGE CITY *  CLOUDY    34  34 100 CALM      29.97F FOG
SHELDON *      CLOUDY    34  34 100 S10       29.95F WCI  26
SIOUX CITY     CLOUDY    35  33  92 S6        29.99F WCI  30
SPENCER        CLOUDY    33  33 100 S16       29.99F WCI  23
STORM LAKE *   CLOUDY    32  32 100 S8        29.98F FOG     WCI  25
$$

IAZ055>058-069>071-079>083-090>094-041000-
   SOUTHWEST IOWA

CITY           SKY/WX    TMP DP  RH WIND       PRES   REMARKS
ATLANTIC *     CLOUDY    36  36 100 SW8       30.02S FOG     WCI  29
AUDUBON *      MIX PCPN  34  32  93 S7        30.01F WCI  28
CLARINDA *       N/A     39  39 100 S7        30.05F FOG     WCI  34
COUNCIL BLFS * CLOUDY    34  34 100 SW10      30.01S FOG     WCI  26
CRESTON *      CLOUDY    37  36  93 S10       30.04F FOG     WCI  30
HARLAN  *      CLOUDY    34  34 100 SW7       30.04S WCI  28
LAMONI         MIX PCPN  37  35  92 S13       30.05F WCI  29
RED OAK *      CLOUDY    37  37 100 SW9       30.03S FOG     WCI  31
SHENANDOAH *   LGT RAIN  39  37  93 SW10      30.05S WCI  32
$$

IAZ047>049-059>061-072>074-084-041000-
   CENTRAL IOWA

CITY           SKY/WX    TMP DP  RH WIND       PRES   REMARKS
AMES           LGT SNOW  33  33 100 SE12      30.05F VSB 1   WCI  24
ANKENY *       LGT SNOW  32  32 100 S16G25    30.07F WCI  21
BOONE *        LGT SNOW  32  32 100 SE14      30.02F VSB 1   WCI  22
CHARITON *     LGT RAIN  37  34  87 S14G20    30.05F WCI  29
DES MOINES     LGT SNOW  35  34  96 S8        30.06F FOG     WCI  29
GRINNELL*      LGT SNOW  32  32  99 SE9       30.09F WCI  25
KNOXVILLE *    CLOUDY    37  34  87 S13       30.06F FOG     WCI  29
MARSHALLTOWN   LGT SNOW  33  33 100 SE16      30.06F VSB 1   WCI  23
NEWTON *       FOG       32  32 100 SE12      30.07F VSB 1   WCI  23
PELLA *        LGT RAIN  36  34  94 SE10      30.09F WCI  28
PERRY *        LGT SNOW  33  33 100 SE9       30.03F WCI  26
$$

IAZ004>006-015-016-023>025-035-036-041000-
   NORTH CENTRAL IOWA

CITY           SKY/WX    TMP DP  RH WIND       PRES   REMARKS
ALGONA *       MIX PCPN  34  34 100 S16       30.00F WCI  23
CLARION *      FOG       32  32 100 SE15      30.02F VSB 1   WCI  22
ESTHERVILLE    CLOUDY    32  32 100 S12       29.99F FOG     WCI  23
FORT DODGE *   CLOUDY    34  30  86 S8        30.02F WCI  27
MASON CITY     LGT SNOW  32  31  96 SE14      30.05F VSB 1   WCI  22
WEBSTER CITY * LGT SNOW  34  34 100 SE15      30.01F WCI  24
IOWA FALLS *   LGT SNOW  33  32  95 SE10      30.06F WCI  25
$$

IAZ007>011-017>019-026>030-037>042-050>054-066-041000-
   NORTHEAST IOWA

CITY           SKY/WX    TMP DP  RH WIND       PRES   REMARKS
CEDAR RAPIDS   CLOUDY    33  32  96 SE10      30.11F WCI  25
CHARLES CITY * LGT SNOW  32  32 100 SE13      30.08F WCI  22
CLINTON *      CLOUDY    33  28  81 SE10      30.18F WCI  25
DECORAH *      LGT SNOW  32  30  93 SE8       30.10S WCI  25
DUBUQUE        LGT SNOW  31  28  89 S9        30.15F FOG     WCI  23
MONTICELLO *   LGT SNOW  32  30  93 SE10      30.14F WCI  24
OELWEIN *      LGT SNOW  32  32 100 SE15      30.10F WCI  22
WATERLOO       LGT SNOW  32  31  96 SE14      30.08F VSB 3/4 WCI  22
$$

IAZ064-065-067-068-078-041000-
   EAST CENTRAL IOWA

CITY           SKY/WX    TMP DP  RH WIND       PRES   REMARKS
DAVENPORT      CLOUDY    33  27  78 SE13      30.17F WCI  24
IOWA CITY      CLOUDY    35  29  78 SE8       30.15F WCI  29
MUSCATINE *    CLOUDY    36  30  80 SE9       30.17F WCI  29
QUAD CITIES    CLOUDY    35  27  72 E9        30.17F WCI  28
$$

IAZ062-063-075>077-085>089-095>099-041000-
   SOUTHEAST IOWA

CITY           SKY/WX    TMP DP  RH WIND       PRES   REMARKS
BURLINGTON     CLOUDY    34  31  88 SE9       30.15F WCI  27
FAIRFIELD *    CLOUDY    36  32  87 S10       30.13F FOG     WCI  28
FORT MADISON * DRIZZLE   36  32  87 SE8       30.15F WCI  29
KEOKUK *       CLOUDY    37  34  87 SE5       30.15S WCI  34
OSKALOOSA *    LGT RAIN  35  33  94 SE12      30.10F WCI  26
CENTERVILLE *  MIX PCPN  36  32  87 SE9       30.11F WCI  29
OTTUMWA        LGT RAIN  37  33  85 S17       30.10F WCI  27
WASHINGTON *   CLOUDY    36  32  87 S13       30.15S WCI  27
$$

ABBREVIATIONS USED IN REMARKS
   TC - TEMPERATURES IN CELSIUS
  WCI - WIND CHILL INDEX
   HX - HEAT INDEX
  VSB - VISIBILITY
$$





USA.gov is the U.S. government's official web portal to all federal, state and local government web resources and services.